Weather History for Ord, NE

Change the Weather History Date:

Sunday, November 11, 2012

  Actual Average Record
Temperature  
Mean Temperature 23 °F 39 °F  
Max Temperature 32 °F 51 °F 80 °F (2005)
Min Temperature 13 °F 26 °F 8 °F (2014)
Degree Days  
Heating Degree Days 42 26  
Month to date heating degree days 281 265  
Since 1 July heating degree days 972 885  
Cooling Degree Days 0 0  
Month to date cooling degree days 0 0  
Year to date cooling degree days 1220 845  
Moisture  
Dew Point 11 °F    
Average Humidity 60    
Maximum Humidity 81    
Minimum Humidity 39    
Precipitation  
Precipitation 0.00 in 0.03 in 1.13 in (1982)
Month to date precipitation 0.05 0.46  
Year to date precipitation 11.42 23.74  
Sea Level Pressure  
Sea Level Pressure 30.05 in    
Wind  
Wind Speed 17 mph (NW)    
Max Wind Speed 30 mph    
Max Gust Speed 38 mph    
Visibility 10 miles    
Events      
T = Trace of Precipitation, MM = Missing Value Source: NWS Daily Summary

Daily Weather History Graph

Daily Weather History Graph

Search for Another Location

Airport:

Trip Planner

Search our weather history database for the weather conditions in past years. The results will help you decide how hot, cold, wet, or windy it might be!

Date:

Astronomy

Nov. 11, 2012 Rise Set
Actual Time 7:20 AM CST 5:18 PM CST
Civil Twilight 6:50 AM CST 5:48 PM CST
Nautical Twilight 6:17 AM CST 6:21 PM CST
Astronomical Twilight 5:44 AM CST 6:54 PM CST
Moon 4:34 AM CST (11/11) 3:44 PM CST (11/11)
Length of Visible Light 10h 57m
Length of Day
9h 58m
Waning Crescent, 7% of the Moon is Illuminated
Nov 11
Waning Crescent
Nov 13
New
Nov 20
First Quarter
Nov 28
Full
Dec 6
Last Quarter

Hourly Weather History & Observations

Time (CST) Temp. Windchill Dew Point Humidity Pressure Visibility Wind Dir Wind Speed Gust Speed Precip Events Conditions
12:05 AM 24.8 °F 9.0 °F 19.4 °F 80% 29.79 in 10.0 mi NNW 25.3 mph 33.4 mph N/A   Overcast
12:16 AM 24.8 °F 8.7 °F 17.6 °F 74% 29.78 in 10.0 mi NNW 26.5 mph 33.4 mph N/A   Overcast
12:53 AM 23.0 °F 4.9 °F 17.1 °F 78% 29.86 in 10.0 mi NW 32.2 mph 38.0 mph N/A   Overcast
1:39 AM 21.2 °F 4.5 °F 15.8 °F 80% 29.84 in 10.0 mi NW 24.2 mph 32.2 mph N/A   Overcast
1:53 AM 21.0 °F 3.9 °F 15.1 °F 78% 29.90 in 10.0 mi NW 25.3 mph 34.5 mph N/A   Overcast
2:00 AM 21.2 °F 3.9 °F 15.8 °F 80% 29.86 in 10.0 mi NNW 26.5 mph 35.7 mph N/A   Overcast
2:53 AM 19.9 °F 2.2 °F 12.0 °F 71% 29.93 in 10.0 mi NNW 26.5 mph 36.8 mph N/A   Overcast
4:53 AM 18.0 °F 2.2 °F 10.0 °F 71% 29.96 in 10.0 mi NNW 18.4 mph 28.8 mph N/A   Clear
5:53 AM 17.1 °F -0.3 °F 10.0 °F 74% 29.97 in 10.0 mi NW 21.9 mph 28.8 mph N/A   Scattered Clouds
6:53 AM 16.0 °F 0.1 °F 8.1 °F 71% 30.00 in 10.0 mi NW 17.3 mph 26.5 mph N/A   Clear
7:53 AM 15.8 °F -0.2 °F 6.8 °F 68% 29.95 in 10.0 mi NNW 17.3 mph 25.3 mph N/A   Clear
8:53 AM 18.0 °F 1.3 °F 7.0 °F 62% 30.06 in 10.0 mi NNW 20.7 mph 28.8 mph N/A   Clear
9:53 AM 21.0 °F 3.9 °F 8.1 °F 57% 30.06 in 10.0 mi NNW 25.3 mph 32.2 mph N/A   Clear
10:53 AM 24.1 °F 9.0 °F 10.0 °F 55% 30.09 in 10.0 mi NW 21.9 mph 29.9 mph N/A   Clear
11:53 AM 28.0 °F 14.3 °F 10.9 °F 49% 30.09 in 10.0 mi NNW 21.9 mph 28.8 mph N/A   Clear
12:53 PM 28.9 °F 16.1 °F 9.0 °F 43% 30.09 in 10.0 mi NW 19.6 mph 28.8 mph N/A   Clear
1:53 PM 28.9 °F 16.5 °F 10.9 °F 47% 30.09 in 10.0 mi NW 18.4 mph 26.5 mph N/A   Clear
2:53 PM 30.0 °F 18.3 °F 10.9 °F 45% 30.09 in 10.0 mi NW 17.3 mph - N/A   Clear
3:53 PM 32.0 °F 20.8 °F 10.0 °F 40% 30.10 in 10.0 mi WNW 17.3 mph - N/A   Clear
4:53 PM 28.9 °F 17.3 °F 9.0 °F 43% 30.13 in 10.0 mi NW 16.1 mph 23.0 mph N/A   Clear
5:53 PM 24.1 °F 18.2 °F 10.0 °F 55% 30.16 in 10.0 mi NW 4.6 mph - N/A   Clear
6:53 PM 17.1 °F 11.7 °F 8.1 °F 68% 30.20 in 10.0 mi WSW 3.5 mph - N/A   Clear
7:53 PM 18.0 °F 9.8 °F 9.0 °F 68% 30.22 in 10.0 mi West 5.8 mph - N/A   Clear
8:53 PM 12.9 °F 5.2 °F 7.0 °F 77% 30.25 in 10.0 mi NNW 4.6 mph - N/A   Clear
9:53 PM 16.0 °F 6.3 °F 10.0 °F 77% 30.26 in 10.0 mi WNW 6.9 mph - N/A   Clear
10:53 PM 19.0 °F 8.2 °F 10.9 °F 71% 30.26 in 10.0 mi West 9.2 mph - N/A   Clear
11:53 PM 18.0 °F 6.1 °F 10.9 °F 74% 30.26 in 10.0 mi West 10.4 mph - N/A   Clear